Location: Bonn
(50.7330°N, 7.1000°E)
Time: 22:32:28
(UTC+02:00)

Iridium 67 - Visible Passes

Search period start: 24 October 2014 00:00
Search period end: 02 November 2014 23:00
Orbit: 776 x 779 km, 86.4° (Epoch: 24 October)

Date Brightness Start Highest point End Pass type
(mag) Time Alt. Az. Time Alt. Az. Time Alt. Az.
24 Oct 8.1 03:35:14 10° NNE 03:36:34 16° NNE 03:36:34 16° NNE visible
24 Oct 7.3 05:15:22 10° N 05:17:00 20° NNW 05:17:00 20° NNW visible
25 Oct 7.7 04:41:45 10° N 04:42:56 17° N 04:42:56 17° N visible
26 Oct 8.1 03:08:18 10° N 03:08:57 14° N 03:08:57 14° N visible
26 Oct 8.3 17:53:44 10° WSW 17:56:53 16° WNW 18:00:04 10° NNW visible
29 Oct 8.4 17:55:26 10° W 17:57:18 12° WNW 17:59:10 10° NW visible
